TimeEDT,TemperatureF,Dew PointF,Humidity,Sea Level PressureIn,VisibilityMPH,Wind Direction,Wind SpeedMPH,Gust SpeedMPH,PrecipitationIn,Events,Conditions,WindDirDegrees,DateUTC
12:52 AM,63.0,52.0,67,30.06,10.0,WSW,4.6,-,N/A,,Partly Cloudy,240,2013-07-29 04:52:00
1:52 AM,59.0,53.1,81,30.06,10.0,SSW,4.6,-,N/A,,Clear,210,2013-07-29 05:52:00
2:52 AM,54.0,53.1,97,30.06,10.0,SSW,3.5,-,N/A,,Clear,200,2013-07-29 06:52:00
3:52 AM,57.9,54.0,87,30.07,10.0,Calm,Calm,-,N/A,,Scattered Clouds,0,2013-07-29 07:52:00
4:52 AM,57.0,54.0,89,30.08,10.0,SSW,3.5,-,N/A,,Mostly Cloudy,200,2013-07-29 08:52:00
5:52 AM,57.9,53.1,84,30.09,10.0,Calm,Calm,-,N/A,,Partly Cloudy,0,2013-07-29 09:52:00
6:52 AM,57.0,54.0,89,30.11,10.0,Calm,Calm,-,N/A,,Partly Cloudy,0,2013-07-29 10:52:00
7:52 AM,59.0,55.0,87,30.12,10.0,South,3.5,-,N/A,,Partly Cloudy,190,2013-07-29 11:52:00
8:52 AM,64.0,55.9,75,30.13,10.0,WSW,4.6,-,N/A,,Partly Cloudy,240,2013-07-29 12:52:00
10:52 AM,72.0,57.0,59,30.14,10.0,West,8.1,-,N/A,,Partly Cloudy,280,2013-07-29 14:52:00
11:52 AM,73.0,57.9,59,30.15,10.0,Variable,6.9,-,N/A,,Scattered Clouds,0,2013-07-29 15:52:00
12:52 PM,75.0,55.9,51,30.15,10.0,WSW,8.1,-,N/A,,Mostly Cloudy,250,2013-07-29 16:52:00
1:52 PM,77.0,55.9,48,30.14,10.0,West,11.5,19.6,N/A,,Mostly Cloudy,280,2013-07-29 17:52:00
2:52 PM,77.0,55.9,48,30.15,10.0,West,10.4,17.3,N/A,,Scattered Clouds,270,2013-07-29 18:52:00
3:52 PM,78.1,55.0,45,30.13,10.0,West,10.4,-,N/A,,Scattered Clouds,270,2013-07-29 19:52:00
4:52 PM,78.1,55.9,46,30.13,10.0,West,9.2,-,N/A,,Mostly Cloudy,260,2013-07-29 20:52:00
5:52 PM,78.1,55.9,46,30.13,10.0,West,8.1,-,N/A,,Mostly Cloudy,270,2013-07-29 21:52:00
6:52 PM,77.0,55.9,48,30.15,10.0,West,11.5,-,N/A,,Scattered Clouds,280,2013-07-29 22:52:00
7:52 PM,73.0,57.9,59,30.16,10.0,West,3.5,-,N/A,,Scattered Clouds,260,2013-07-29 23:52:00
8:52 PM,73.0,55.9,55,30.17,10.0,NW,4.6,-,N/A,,Mostly Cloudy,320,2013-07-30 00:52:00
9:52 PM,66.9,57.0,70,30.17,10.0,Calm,Calm,-,N/A,,Mostly Cloudy,0,2013-07-30 01:52:00
10:52 PM,66.0,57.9,75,30.18,10.0,Calm,Calm,-,N/A,,Mostly Cloudy,0,2013-07-30 02:52:00
11:52 PM,64.9,57.0,75,30.18,10.0,Calm,Calm,-,N/A,,Mostly Cloudy,0,2013-07-30 03:52:00